| time (UTC) | temp F | wind direction | speed MPH | gust MPH | rain 1hr in | rain 24hr in | rain mn in | humidity % | barometer mb |
| 20260505022401 | 63 | 239 | 6.0 | 14.0 | 0.00 | 0.00 | 0.00 | 69 | 1010.5 |
| 20260505021402 | 64 | 245 | 8.0 | 14.0 | 0.00 | 0.00 | 0.00 | 68 | 1010.6 |
| 20260505020837 | 65 | 236 | 6.0 | 15.0 | 0.00 | 0.00 | 0.00 | 67 | 1010.4 |
| 20260505015402 | 65 | 271 | 6.0 | 15.0 | 0.00 | 0.00 | 0.00 | 64 | 1010.5 |
| 20260505014401 | 66 | 244 | 6.0 | 13.0 | 0.00 | 0.00 | 0.00 | 65 | 1010.1 |
| 20260505013848 | 66 | 250 | 5.0 | 9.0 | 0.00 | 0.00 | 0.00 | 66 | 1010.0 |
| 20260505012847 | 67 | 280 | 7.0 | 10.0 | 0.00 | 0.00 | 0.00 | 65 | 1010.1 |
| 20260505010837 | 68 | 253 | 5.0 | 13.0 | 0.00 | 0.00 | 0.00 | 60 | 1010.2 |
| 20260505005400 | 68 | 221 | 7.0 | 13.0 | 0.00 | 0.00 | 0.00 | 61 | 1010.1 |
| 20260505004836 | 69 | 263 | 5.0 | 9.0 | 0.00 | 0.00 | 0.00 | 61 | 1010.1 |
| 20260505003401 | 71 | 269 | 5.0 | 13.0 | 0.00 | 0.00 | 0.00 | 59 | 1010.0 |
| 20260505002401 | 71 | 270 | 2.0 | 11.0 | 0.00 | 0.00 | 0.00 | 56 | 1009.8 |
| 20260505001401 | 72 | 231 | 4.0 | 10.0 | 0.00 | 0.00 | 0.00 | 57 | 1009.9 |
| 20260505000403 | 72 | 301 | 5.0 | 11.0 | 0.00 | 0.00 | 0.00 | 56 | 1009.9 |
| 20260504235400 | 73 | 253 | 5.0 | 13.0 | 0.00 | 0.00 | 0.00 | 54 | 1009.7 |
| 20260504234359 | 73 | 292 | 6.0 | 11.0 | 0.00 | 0.00 | 0.00 | 53 | 1009.9 |
| 20260504233358 | 73 | 251 | 5.0 | 10.0 | 0.00 | 0.00 | 0.00 | 53 | 1009.7 |
| 20260504232358 | 73 | 273 | 7.0 | 11.0 | 0.00 | 0.00 | 0.00 | 53 | 1009.9 |
| 20260504231356 | 73 | 268 | 5.0 | 15.0 | 0.00 | 0.00 | 0.00 | 54 | 1010.0 |
| 20260504230356 | 73 | 247 | 5.0 | 13.0 | 0.00 | 0.00 | 0.00 | 54 | 1009.8 |
| 20260504225354 | 74 | 241 | 6.0 | 11.0 | 0.00 | 0.00 | 0.00 | 53 | 1010.0 |
| 20260504224351 | 74 | 281 | 6.0 | 10.0 | 0.00 | 0.00 | 0.00 | 55 | 1010.0 |
| 20260504223351 | 74 | 339 | 8.0 | 14.0 | 0.00 | 0.00 | 0.00 | 55 | 1010.2 |
| 20260504222350 | 73 | 247 | 4.0 | 11.0 | 0.00 | 0.00 | 0.00 | 55 | 1010.2 |
| 20260504221349 | 73 | 244 | 7.0 | 10.0 | 0.00 | 0.00 | 0.00 | 57 | 1010.1 |
| 20260504220348 | 73 | 228 | 7.0 | 11.0 | 0.00 | 0.00 | 0.00 | 58 | 1010.3 |
| 20260504215834 | 72 | 220 | 5.0 | 10.0 | 0.00 | 0.00 | 0.00 | 59 | 1010.2 |
| 20260504214345 | 72 | 294 | 5.0 | 13.0 | 0.00 | 0.00 | 0.00 | 59 | 1010.2 |
| 20260504213329 | 71 | 247 | 6.0 | 10.0 | 0.00 | 0.00 | 0.00 | 61 | 1010.4 |
| 20260504211329 | 70 | 226 | 4.0 | 11.0 | 0.00 | 0.00 | 0.00 | 62 | 1010.7 |
| 20260504210808 | 70 | 251 | 6.0 | 10.0 | 0.00 | 0.00 | 0.00 | 62 | 1010.7 |
| 20260504205329 | 69 | 271 | 6.0 | 10.0 | 0.00 | 0.00 | 0.00 | 62 | 1010.6 |
| 20260504204817 | 69 | 273 | 5.0 | 10.0 | 0.00 | 0.00 | 0.00 | 64 | 1010.7 |
| 20260504203329 | 68 | 250 | 7.0 | 9.0 | 0.00 | 0.00 | 0.00 | 65 | 1010.9 |
| 20260504202329 | 68 | 279 | 6.0 | 10.0 | 0.00 | 0.00 | 0.00 | 65 | 1011.0 |
| 20260504201329 | 67 | 264 | 6.0 | 10.0 | 0.00 | 0.00 | 0.00 | 67 | 1011.1 |
| 20260504200329 | 67 | 268 | 5.0 | 9.0 | 0.00 | 0.00 | 0.00 | 67 | 1010.8 |
| 20260504195807 | 66 | 254 | 6.0 | 10.0 | 0.00 | 0.00 | 0.00 | 69 | 1011.0 |
| 20260504194758 | 66 | 272 | 4.0 | 9.0 | 0.00 | 0.00 | 0.00 | 69 | 1011.1 |
| 20260504193321 | 65 | 288 | 6.0 | 10.0 | 0.00 | 0.00 | 0.00 | 73 | 1011.1 |
| 20260504192320 | 65 | 248 | 5.0 | 10.0 | 0.00 | 0.00 | 0.00 | 72 | 1011.2 |
| 20260504191316 | 64 | 274 | 6.0 | 10.0 | 0.00 | 0.00 | 0.00 | 72 | 1011.4 |
| 20260504190314 | 64 | 223 | 5.0 | 10.0 | 0.00 | 0.00 | 0.00 | 72 | 1011.4 |
| 20260504185310 | 63 | 283 | 6.0 | 10.0 | 0.00 | 0.00 | 0.00 | 73 | 1011.7 |
| 20260504184309 | 63 | 226 | 6.0 | 10.0 | 0.00 | 0.00 | 0.00 | 75 | 1011.7 |
| 20260504183303 | 62 | 280 | 6.0 | 10.0 | 0.00 | 0.00 | 0.00 | 76 | 1011.8 |
| 20260504182304 | 62 | 252 | 4.0 | 10.0 | 0.00 | 0.00 | 0.00 | 77 | 1011.7 |
| 20260504181302 | 62 | 226 | 5.0 | 9.0 | 0.00 | 0.00 | 0.00 | 77 | 1011.9 |
| 20260504180301 | 61 | 288 | 5.0 | 9.0 | 0.00 | 0.00 | 0.00 | 77 | 1011.6 |
| 20260504175300 | 61 | 246 | 7.0 | 9.0 | 0.00 | 0.00 | 0.00 | 77 | 1011.6 |
| 20260504174300 | 61 | 264 | 5.0 | 9.0 | 0.00 | 0.00 | 0.00 | 77 | 1011.6 |
| 20260504173255 | 61 | 240 | 5.0 | 8.0 | 0.00 | 0.00 | 0.00 | 78 | 1011.7 |
| 20260504172253 | 60 | 247 | 4.0 | 9.0 | 0.00 | 0.00 | 0.00 | 79 | 1011.7 |
| 20260504171252 | 60 | 299 | 3.0 | 9.0 | 0.00 | 0.00 | 0.00 | 78 | 1011.6 |
| 20260504170248 | 60 | 246 | 4.0 | 9.0 | 0.00 | 0.00 | 0.00 | 79 | 1011.6 |
| 20260504150228 | 56 | 256 | 3.0 | 8.0 | 0.00 | 0.00 | 0.00 | 87 | 1010.8 |
| 20260504141202 | 55 | 265 | 2.0 | 6.0 | 0.00 | 0.00 | 0.00 | 87 | 1010.7 |
| 20260504140201 | 55 | 256 | 2.0 | 6.0 | 0.00 | 0.00 | 0.00 | 87 | 1010.5 |
| 20260504130201 | 54 | 197 | 0.0 | 0.0 | 0.00 | 0.00 | 0.00 | 85 | 1009.9 |
| 20260504120156 | 55 | 197 | 0.0 | 0.0 | 0.00 | 0.00 | 0.00 | 83 | 1009.4 |
| 20260504110150 | 56 | 197 | 0.0 | 0.0 | 0.00 | 0.00 | 0.00 | 82 | 1009.3 |
| 20260504100130 | 57 | 197 | 0.0 | 0.0 | 0.00 | 0.00 | 0.00 | 80 | 1009.0 |
| 20260504090130 | 58 | 196 | 0.0 | 0.0 | 0.00 | 0.00 | 0.00 | 77 | 1009.1 |
| 20260504081122 | 60 | 196 | 0.0 | 0.0 | 0.00 | 0.00 | 0.00 | 72 | 1009.1 |
| 20260504080119 | 60 | 196 | 0.0 | 0.0 | 0.00 | 0.00 | 0.00 | 72 | 1009.2 |
| 20260504045046 | 69 | 196 | 0.0 | 0.0 | 0.00 | 0.00 | 0.00 | 61 | 1008.9 |
| 20260504043044 | 71 | 196 | 0.0 | 1.0 | 0.00 | 0.00 | 0.00 | 56 | 1008.9 |
| 20260504042043 | 72 | 196 | 0.0 | 0.0 | 0.00 | 0.00 | 0.00 | 54 | 1008.8 |
| 20260504041040 | 73 | 196 | 0.0 | 1.0 | 0.00 | 0.00 | 0.00 | 53 | 1008.7 |
| 20260504035036 | 75 | 196 | 0.0 | 2.0 | 0.00 | 0.00 | 0.00 | 48 | 1008.6 |
| 20260504034033 | 76 | 197 | 0.0 | 0.0 | 0.00 | 0.00 | 0.00 | 50 | 1008.5 |
| 20260504033030 | 77 | 198 | 0.0 | 1.0 | 0.00 | 0.00 | 0.00 | 49 | 1008.5 |
| 20260504032030 | 79 | 197 | 0.0 | 1.0 | 0.00 | 0.00 | 0.00 | 44 | 1008.4 |
| 20260504031025 | 81 | 197 | 0.0 | 1.0 | 0.00 | 0.00 | 0.00 | 44 | 1008.4 |
| 20260504030024 | 82 | 198 | 0.0 | 1.0 | 0.00 | 0.00 | 0.00 | 44 | 1008.2 |
| 20260504025023 | 82 | 197 | 0.0 | 0.0 | 0.00 | 0.00 | 0.00 | 44 | 1008.2 |
| 20260504024022 | 82 | 197 | 0.0 | 0.0 | 0.00 | 0.00 | 0.00 | 43 | 1008.4 |